{"data":{"norad_id":67732,"epoch":"2026-05-25T03:33:41.529312Z","epoch_age_seconds":56014,"freshness":"FRESH","line1":"1 67732U 26026M   26145.14839733  .00016947  00000+0  52605-3 0  9994","line2":"2 67732  97.2854 198.6761 0000783  91.4521 268.6811 15.33448319 15841","mean_motion":15.33448319,"eccentricity":7.83e-5,"inclination_deg":97.2854,"raan_deg":198.6761,"arg_perigee_deg":91.4521,"mean_anomaly_deg":268.6811,"bstar":0.00052605,"rev_number":1584,"period_min":93.906001405972,"perigee_km":464.99744010261,"apogee_km":466.06915887151,"semimajor_km":6843.6702994871,"source":"CELESTRAK","updated_at":"2026-05-25T13:38:21.688764Z"}}